Location: Unspecified
(0.0000°N, 0.0000°E)
Time: 21:01:21
(UTC+01:00)

PROBA 2 - Visible Passes

Search period start: 31 October 2014 00:00
Search period end: 10 November 2014 00:00
Orbit: 707 x 727 km, 98.3° (Epoch: 31 October)

Date Brightness Start Highest point End Pass type
(mag) Time Alt. Az. Time Alt. Az. Time Alt. Az.
31 Oct ? 19:35:14 10° N 19:39:56 54° WNW 19:44:41 10° SSW visible
01 Nov ? 20:24:46 10° NW 20:27:02 13° WNW 20:29:19 10° WSW visible
02 Nov ? 19:31:37 10° N 19:36:23 61° WNW 19:41:11 10° SSW visible
03 Nov ? 20:20:47 10° NW 20:23:28 15° WNW 20:26:10 10° WSW visible
04 Nov ? 19:28:01 10° N 19:32:49 68° WNW 19:37:39 10° SSW visible
05 Nov ? 06:16:44 10° ESE 06:18:44 13° ENE 06:20:43 10° NE visible
05 Nov ? 20:16:53 10° NW 20:19:55 17° WNW 20:22:57 10° WSW visible
06 Nov ? 19:24:25 10° N 19:29:15 76° WNW 19:34:07 10° SSW visible
07 Nov ? 06:13:50 10° E 06:15:09 11° ENE 06:16:29 10° ENE visible
07 Nov ? 20:13:02 10° NW 20:16:21 19° WNW 20:19:41 10° WSW visible
08 Nov ? 19:20:50 10° N 19:25:41 84° WNW 19:30:34 10° SSW visible
09 Nov ? 20:09:13 10° NNW 20:12:47 21° WNW 20:16:21 10° SW visible
